This is the latest recevied weather packets stored in our database for station/object KTPF. If no packets are shown the sender has not sent any weather packets the latest 10 day(s).
| Time | Temp. | Humidity | Pressure | Rain* | Wind** | Luminosity | Snow |
|---|---|---|---|---|---|---|---|
| 1777800821 | 17.78° C | 93% | 1015.2 hPa | 0.25 mm | - | - | - |
| 1777800220 | 17.78° C | 93% | 1015.2 hPa | 0.25 mm | - | - | - |
| 1777799622 | 17.78° C | 93% | 1015.2 hPa | - | - | - | - |
| 1777799022 | 17.78° C | 93% | 1015.2 hPa | - | - | - | - |
| 1777798422 | 17.78° C | 100% | 1014.9 hPa | - | - | - | - |
| 1777797823 | 17.78° C | 100% | 1014.9 hPa | - | - | - | - |
| 1777797221 | 18.89° C | 93% | 1014.9 hPa | - | - | - | - |
| 1777796626 | 18.89° C | 93% | 1014.9 hPa | - | - | - | - |
| 1777796022 | 18.89° C | 93% | 1014.2 hPa | - | - | - | - |
| 1777795428 | 18.89° C | 93% | 1014.2 hPa | - | - | - | - |
| 1777794826 | 18.89° C | 93% | 1014.2 hPa | - | - | - | - |
| 1777794226 | 18.89° C | 93% | 1014.2 hPa | - | - | - | - |
| 1777793622 | 18.89° C | 93% | 1014.2 hPa | - | - | - | - |
| 1777793022 | 18.89° C | 93% | 1014.2 hPa | - | - | - | - |
| 1777792421 | 18.89° C | 93% | 1014.2 hPa | - | - | - | - |
| 1777791823 | 18.89° C | 93% | 1014.2 hPa | - | - | - | - |
| 1777791220 | 20° C | 88% | 1014.6 hPa | - | - | - | - |
| 1777790622 | 20° C | 88% | 1014.6 hPa | - | - | - | - |
| 1777790023 | 20° C | 93% | 1014.6 hPa | - | - | - | - |
| 1777789422 | 20° C | 93% | 1014.6 hPa | - | - | - | - |
| 1777788823 | 20° C | 100% | 1014.6 hPa | - | - | - | - |
| 1777788226 | 20° C | 100% | 1014.6 hPa | - | - | - | - |
| 1777787623 | 20.56° C | 94% | 1014.9 hPa | - | - | - | - |
| 1777787022 | 20.56° C | 94% | 1014.9 hPa | - | - | - | - |
| 1777786423 | 20.56° C | 94% | 1014.6 hPa | - | - | - | - |
* Rain latest hour (hover to see other rain measurements)
** Current wind speed in m/s (hover to see current wind gust speed)